FW3016 Weather Reports


time (UTC)temp
C
wind
direction
speed
KPH
gust
KPH
rain 1hr
cm
rain 24hr
cm
rain mn
cm
humidity
%
barometer
mb
20260507081535 6 24 0.0 0.0 0.00 0.00 0.00 87 1019.4
20260507080034 6 24 0.0 0.0 0.00 0.00 0.00 86 1019.1
20260507074530 6 24 0.0 0.0 0.00 0.00 0.00 85 1019.5
20260507073030 7 24 0.0 0.0 0.00 0.00 0.00 84 1019.0
20260507071526 7 24 0.0 0.0 0.00 0.00 0.00 84 1019.2
20260507070022 7 24 0.0 0.0 0.00 0.00 0.00 83 1019.4
20260507064523 8 24 0.0 0.0 0.00 0.00 0.00 81 1019.5
20260507063031 8 24 0.0 0.0 0.00 0.00 0.00 80 1019.5
20260507061516 8 24 0.0 1.6 0.00 0.00 0.00 79 1019.5
20260507060029 8 24 1.6 4.8 0.00 0.00 0.00 79 1019.0
20260507054512 9 24 0.0 4.8 0.00 0.00 0.00 79 1019.2
20260507053008 9 25 0.0 4.8 0.00 0.00 0.00 77 1019.2
20260507051508 9 24 1.6 4.8 0.00 0.00 0.00 77 1019.1
20260507050004 9 24 1.6 4.8 0.00 0.00 0.00 76 1019.1
20260507044503 9 34 3.2 4.8 0.00 0.00 0.00 75 1018.9
20260507043003 9 30 3.2 6.4 0.00 0.00 0.00 76 1019.1
20260507041502 9 28 0.0 3.2 0.00 0.00 0.00 77 1018.9
20260507040001 10 28 0.0 1.6 0.00 0.00 0.00 75 1019.0
20260507034616 10 28 0.0 1.6 0.00 0.00 0.00 73 1019.0
20260507033104 11 28 0.0 3.2 0.00 0.00 0.00 71 1018.7
20260507031619 11 28 1.6 4.8 0.00 0.00 0.00 70 1018.5
20260507030159 11 28 1.6 4.8 0.00 0.00 0.00 69 1018.5
20260507024558 12 28 1.6 4.8 0.00 0.00 0.00 66 1018.4
20260507023057 12 28 3.2 6.4 0.00 0.00 0.00 64 1018.4
20260507021557 12 26 1.6 4.8 0.00 0.00 0.00 63 1018.2
20260507020058 13 25 0.0 8.0 0.00 0.00 0.00 61 1018.1
20260507014559 13 30 0.0 4.8 0.00 0.00 0.00 60 1017.9
20260507013111 14 37 3.2 8.0 0.00 0.00 0.00 58 1017.7
20260507011558 15 43 3.2 12.9 0.00 0.00 0.00 56 1017.5
20260507010104 15 35 4.8 12.9 0.00 0.00 0.00 53 1017.4
20260507004653 16 13 6.4 11.3 0.00 0.00 0.00 51 1017.1
20260507003053 16 11 6.4 14.5 0.00 0.00 0.00 50 1017.2
20260507001555 17 58 6.4 16.1 0.00 0.00 0.00 50 1016.9
20260507000051 17 23 4.8 16.1 0.00 0.00 0.00 50 1016.9
20260506234551 18 51 6.4 19.3 0.00 0.00 0.00 48 1016.8
20260506233103 18 48 3.2 9.7 0.00 0.00 0.00 46 1016.7
20260506231550 18 48 3.2 16.1 0.00 0.00 0.00 46 1016.5
20260506230049 19 20 9.7 22.5 0.00 0.00 0.00 46 1016.4
20260506224548 19 30 8.0 20.9 0.00 0.00 0.00 46 1016.2
20260506223049 20 11 4.8 16.1 0.00 0.00 0.00 47 1016.1
20260506221553 19 35 9.7 19.3 0.00 0.00 0.00 46 1016.0
20260506220044 19 340 11.3 20.9 0.00 0.00 0.00 47 1015.8
20260506214544 19 38 8.0 16.1 0.00 0.00 0.00 49 1016.1
20260506213043 18 66 6.4 17.7 0.00 0.00 0.00 52 1016.1
20260506211542 18 35 6.4 17.7 0.00 0.00 0.00 49 1016.1
20260506210043 19 26 4.8 16.1 0.00 0.00 0.00 49 1016.4
20260506204541 19 5 4.8 19.3 0.00 0.00 0.00 48 1016.5
20260506203040 18 27 6.4 25.7 0.00 0.00 0.00 51 1016.8
20260506201541 19 49 9.7 19.3 0.00 0.00 0.00 48 1017.0
20260506200043 19 35 3.2 14.5 0.00 0.00 0.00 51 1016.8
20260506194638 18 34 4.8 19.3 0.00 0.00 0.00 52 1016.9
20260506193036 18 36 4.8 14.5 0.00 0.00 0.00 53 1017.1
20260506191535 19 46 4.8 16.1 0.00 0.00 0.00 53 1017.4
20260506190032 18 46 8.0 17.7 0.00 0.00 0.00 52 1017.6
20260506184534 18 24 4.8 12.9 0.00 0.00 0.00 53 1017.6
20260506183035 17 76 6.4 16.1 0.00 0.00 0.00 55 1017.9
20260506181534 18 14 4.8 16.1 0.00 0.00 0.00 54 1018.1
20260506180028 18 42 4.8 19.3 0.00 0.00 0.00 56 1018.0
20260506174528 18 20 4.8 14.5 0.00 0.00 0.00 58 1018.1
20260506173028 18 15 6.4 16.1 0.00 0.00 0.00 55 1018.6
20260506171526 18 22 6.4 19.3 0.00 0.00 0.00 59 1019.2
20260506170024 18 103 3.2 19.3 0.00 0.00 0.00 55 1019.2
20260506164519 17 18 6.4 19.3 0.00 0.00 0.00 59 1019.1
20260506163023 17 38 9.7 19.3 0.00 0.00 0.00 58 1018.9
20260506161516 17 19 8.0 20.9 0.00 0.00 0.00 59 1019.1
20260506160017 16 86 8.0 17.7 0.00 0.00 0.00 59 1018.8
20260506154508 15 169 1.6 12.9 0.00 0.00 0.00 61 1018.5
20260506153003 15 21 6.4 16.1 0.00 0.00 0.00 61 1018.0
20260506151559 13 24 9.7 22.5 0.00 0.00 0.00 65 1017.7
20260506150055 13 119 3.2 16.1 0.00 0.00 0.00 67 1017.5
20260506144554 13 44 3.2 17.7 0.00 0.00 0.00 68 1017.7
20260506143051 12 37 4.8 14.5 0.00 0.00 0.00 70 1017.7
20260506141605 11 35 6.4 16.1 0.00 0.00 0.00 72 1017.2
20260506140043 11 118 3.2 16.1 0.00 0.00 0.00 72 1017.8
20260506134540 11 55 3.2 17.7 0.00 0.00 0.00 74 1017.8
20260506133127 10 107 3.2 12.9 0.00 0.00 0.00 75 1017.5
20260506131544 10 135 4.8 20.9 0.00 0.00 0.00 76 1017.8
20260506130006 10 5 9.7 20.9 0.00 0.00 0.00 78 1017.6
20260506124601 9 21 4.8 14.5 0.00 0.00 0.00 82 1017.5
20260506123029 9 5 6.4 19.3 0.00 0.00 0.00 83 1017.3
20260506121521 9 355 4.8 17.7 0.00 0.00 0.00 83 1016.8
20260506120020 8 33 4.8 16.1 0.00 0.00 0.00 83 1016.7
20260506114512 8 14 8.0 22.5 0.00 0.00 0.00 83 1017.1
20260506113011 8 22 6.4 17.7 0.00 0.00 0.00 83 1017.3
20260506111508 8 54 6.4 16.1 0.00 0.00 0.00 83 1017.1
20260506110005 8 18 9.7 17.7 0.00 0.00 0.00 83 1017.0
20260506104501 8 32 3.2 12.9 0.00 0.00 0.00 83 1016.5
20260506103100 8 18 4.8 12.9 0.00 0.00 0.00 83 1016.3
20260506101558 8 31 3.2 14.5 0.00 0.00 0.00 82 1016.2
20260506100056 9 30 8.0 17.7 0.00 0.00 0.00 82 1015.9
20260506094554 9 42 4.8 9.7 0.00 0.00 0.00 82 1015.8
20260506093053 9 14 4.8 8.0 0.00 0.00 0.00 82 1015.4
20260506091548 9 46 3.2 12.9 0.00 0.00 0.00 82 1014.6
20260506090046 9 20 6.4 14.5 0.00 0.00 0.00 82 1014.3
20260506084544 9 38 3.2 12.9 0.00 0.00 0.00 82 1014.4
20260506083044 9 27 6.4 16.1 0.00 0.00 0.00 82 1013.9